West Bend, WI

2:29 AM CDT on July 26, 2017 (GMT -0500)
West Bend Municipal

Weather History for KETB - July, 2014

Change the Weather History Date:

Thursday, July 17, 2014

  Actual Average Record
Temperature  
Mean Temperature 60 °F -  
Max Temperature 73 °F 83 °F 98 °F (1931)
Min Temperature 48 °F 60 °F 39 °F (1985)
Degree Days  
Heating Degree Days 4    
Growing Degree Days 10 (Base 50)    
Moisture  
Dew Point 48 °F    
Average Humidity 62    
Maximum Humidity 94    
Minimum Humidity 33    
Precipitation  
Precipitation 0.00 in - - ()
Sea Level Pressure  
Sea Level Pressure 30.09 in    
Wind  
Wind Speed 1 mph (WSW)    
Max Wind Speed 7 mph    
Max Gust Speed -    
Visibility 10 miles    
Events      
Averages and records for this station are not official NWS values.
T = Trace of Precipitation, MM = Missing Value Source: NWS Daily Summary

Daily Weather History Graph

Daily Weather History Graph

Search for Another Location

Airport or City:

Trip Planner

Search our weather history database for the weather conditions in past years. The results will help you decide how hot, cold, wet, or windy it might be!

Date:

Astronomy

Jul. 17, 2014 Rise Set
Actual Time 5:27 AM CDT 8:29 PM CDT
Civil Twilight 4:53 AM CDT 9:03 PM CDT
Nautical Twilight 4:09 AM CDT 9:47 PM CDT
Astronomical Twilight 3:17 AM CDT 10:39 PM CDT
Moon 11:36 PM CDT (7/17) 11:50 AM CDT (7/17)
Length of Visible Light 16h 10m
Length of Day
15h 02m
Waning Gibbous, 65% of the Moon is Illuminated
Jul 17
Waning Gibbous
Jul 18
Last Quarter
Jul 26
New
Aug 3
First Quarter
Aug 10
Full

Hourly Weather History & Observations

Time (CDT) Temp. Dew Point Humidity Pressure Visibility Wind Dir Wind Speed Gust Speed Precip Events Conditions
12:15 AM 51.8 °F 48.2 °F 88% 30.05 in 10.0 mi Calm Calm - N/A   Clear
12:35 AM 51.8 °F 48.2 °F 88% 30.05 in 10.0 mi Calm Calm - N/A   Clear
12:55 AM 51.8 °F 48.2 °F 88% 30.05 in 10.0 mi Calm Calm - N/A   Clear
1:15 AM 51.8 °F 48.2 °F 88% 30.05 in 10.0 mi Calm Calm - N/A   Clear
1:35 AM 51.8 °F 48.2 °F 88% 30.05 in 10.0 mi Calm Calm - N/A   Clear
1:55 AM 51.8 °F 46.4 °F 82% 30.04 in 10.0 mi Calm Calm - N/A   Clear
2:15 AM 50.0 °F 46.4 °F 87% 30.05 in 10.0 mi Calm Calm - N/A   Clear
2:35 AM 50.0 °F 46.4 °F 87% 30.05 in 10.0 mi Calm Calm - N/A   Clear
2:55 AM 50.0 °F 48.2 °F 94% 30.05 in 10.0 mi Calm Calm - N/A   Clear
3:15 AM 51.8 °F 46.4 °F 82% 30.05 in 10.0 mi Calm Calm - N/A   Clear
3:35 AM 50.0 °F 46.4 °F 87% 30.05 in 10.0 mi Calm Calm - N/A   Clear
3:55 AM 50.0 °F 46.4 °F 87% 30.05 in 10.0 mi Calm Calm - N/A   Clear
4:15 AM 50.0 °F 44.6 °F 82% 30.05 in 10.0 mi Calm Calm - N/A   Clear
4:35 AM 50.0 °F 46.4 °F 87% 30.05 in 10.0 mi Calm Calm - N/A   Clear
4:55 AM 50.0 °F 46.4 °F 87% 30.06 in 10.0 mi Calm Calm - N/A   Clear
5:15 AM 50.0 °F 46.4 °F 87% 30.06 in 10.0 mi Calm Calm - N/A   Clear
5:35 AM 48.2 °F 44.6 °F 87% 30.07 in 10.0 mi Calm Calm - N/A   Clear
5:55 AM 48.2 °F 46.4 °F 93% 30.07 in 10.0 mi Calm Calm - N/A   Clear
6:15 AM 50.0 °F 46.4 °F 87% 30.08 in 10.0 mi Calm Calm - N/A   Clear
6:35 AM 51.8 °F 48.2 °F 88% 30.08 in 10.0 mi Calm Calm - N/A   Clear
6:55 AM 53.6 °F 50.0 °F 88% 30.09 in 10.0 mi Calm Calm - N/A   Clear
7:15 AM 57.2 °F 50.0 °F 77% 30.09 in 10.0 mi Calm Calm - N/A   Clear
7:35 AM 59.0 °F 50.0 °F 72% 30.09 in 10.0 mi Calm Calm - N/A   Clear
7:55 AM 60.8 °F 51.8 °F 72% 30.09 in 10.0 mi Calm Calm - N/A   Clear
8:15 AM 62.6 °F 48.2 °F 59% 30.10 in 10.0 mi West 4.6 mph - N/A   Clear
8:35 AM 64.4 °F 46.4 °F 52% 30.10 in 10.0 mi West 6.9 mph - N/A   Clear
8:55 AM 64.4 °F 48.2 °F 56% 30.10 in 10.0 mi WSW 5.8 mph - N/A   Clear
9:15 AM 68.0 °F 48.2 °F 49% 30.10 in 10.0 mi WSW 5.8 mph - N/A   Clear
9:35 AM 68.0 °F 48.2 °F 49% 30.10 in 10.0 mi West 5.8 mph - N/A   Clear
9:55 AM 68.0 °F 50.0 °F 52% 30.10 in 10.0 mi West 5.8 mph - N/A   Clear
10:15 AM 69.8 °F 48.2 °F 46% 30.10 in 10.0 mi West 4.6 mph - N/A   Clear
10:35 AM 69.8 °F 50.0 °F 49% 30.10 in 10.0 mi WSW 5.8 mph - N/A   Clear
10:55 AM 69.8 °F 44.6 °F 40% 30.10 in 10.0 mi Calm Calm - N/A   Clear
11:15 AM 69.8 °F 44.6 °F 40% 30.10 in 10.0 mi SW 4.6 mph - N/A   Clear
11:35 AM 71.6 °F 44.6 °F 38% 30.10 in 10.0 mi SW 5.8 mph - N/A   Mostly Cloudy
11:55 AM 71.6 °F 46.4 °F 41% 30.10 in 10.0 mi WSW 5.8 mph - N/A   Overcast
12:15 PM 71.6 °F 46.4 °F 41% 30.10 in 10.0 mi Calm Calm - N/A   Overcast
12:35 PM 69.8 °F 44.6 °F 40% 30.10 in 10.0 mi NNW 4.6 mph - N/A   Overcast
12:55 PM 71.6 °F 44.6 °F 38% 30.09 in 10.0 mi Calm Calm - N/A   Scattered Clouds
1:15 PM 71.6 °F 44.6 °F 38% 30.09 in 10.0 mi WSW 3.5 mph - N/A   Scattered Clouds
1:35 PM 73.4 °F 44.6 °F 36% 30.09 in 10.0 mi West 6.9 mph - N/A   Scattered Clouds
1:55 PM 71.6 °F 44.6 °F 38% 30.09 in 10.0 mi SW 3.5 mph - N/A   Scattered Clouds
2:15 PM 71.6 °F 42.8 °F 35% 30.09 in 10.0 mi Calm Calm - N/A   Mostly Cloudy
2:35 PM 71.6 °F 44.6 °F 38% 30.09 in 10.0 mi NW 5.8 mph - N/A   Mostly Cloudy
2:55 PM 73.4 °F 46.4 °F 38% 30.09 in 10.0 mi SW 4.6 mph - N/A   Mostly Cloudy
3:15 PM 73.4 °F 44.6 °F 36% 30.09 in 10.0 mi WNW 3.5 mph - N/A   Mostly Cloudy
3:35 PM 73.4 °F 42.8 °F 33% 30.09 in 10.0 mi Calm Calm - N/A   Clear
3:55 PM 73.4 °F 42.8 °F 33% 30.09 in 10.0 mi West 3.5 mph - N/A   Scattered Clouds
4:15 PM 73.4 °F 42.8 °F 33% 30.09 in 10.0 mi SSW 3.5 mph - N/A   Scattered Clouds
4:35 PM 73.4 °F 42.8 °F 33% 30.09 in 10.0 mi Calm Calm - N/A   Mostly Cloudy
4:55 PM 73.4 °F 44.6 °F 36% 30.09 in 10.0 mi WSW 5.8 mph - N/A   Scattered Clouds
5:15 PM 71.6 °F 44.6 °F 38% 30.09 in 10.0 mi WSW 3.5 mph - N/A   Clear
5:35 PM 73.4 °F 44.6 °F 36% 30.09 in 10.0 mi WSW 3.5 mph - N/A   Scattered Clouds
5:55 PM 71.6 °F 42.8 °F 35% 30.09 in 10.0 mi West 5.8 mph - N/A   Scattered Clouds
6:15 PM 71.6 °F 44.6 °F 38% 30.09 in 10.0 mi WSW 5.8 mph - N/A   Mostly Cloudy
6:55 PM 71.6 °F 48.2 °F 43% 30.09 in 10.0 mi SE 3.5 mph - N/A   Scattered Clouds
7:15 PM 69.8 °F 51.8 °F 53% 30.09 in 10.0 mi SE 5.8 mph - N/A   Scattered Clouds
7:35 PM 68.0 °F 51.8 °F 56% 30.10 in 10.0 mi Calm Calm - N/A   Clear
7:55 PM 68.0 °F 51.8 °F 56% 30.10 in 10.0 mi Calm Calm - N/A   Clear
8:15 PM 64.4 °F 51.8 °F 64% 30.10 in 10.0 mi Calm Calm - N/A   Clear
8:35 PM 62.6 °F 53.6 °F 72% 30.10 in 10.0 mi Calm Calm - N/A   Clear
8:55 PM 60.8 °F 53.6 °F 77% 30.10 in 10.0 mi Calm Calm - N/A   Clear
9:15 PM 60.8 °F 53.6 °F 77% 30.11 in 10.0 mi Calm Calm - N/A   Clear
9:35 PM 62.6 °F 53.6 °F 72% 30.11 in 10.0 mi Calm Calm - N/A   Clear
9:55 PM 60.8 °F 51.8 °F 72% 30.11 in 10.0 mi SSW 3.5 mph - N/A   Clear
10:15 PM 59.0 °F 53.6 °F 82% 30.11 in 10.0 mi Calm Calm - N/A   Clear
10:35 PM 59.0 °F 51.8 °F 77% 30.12 in 10.0 mi Calm Calm - N/A   Clear
10:55 PM 59.0 °F 51.8 °F 77% 30.12 in 10.0 mi Calm Calm - N/A   Clear
11:15 PM 59.0 °F 51.8 °F 77% 30.12 in 10.0 mi SSW 4.6 mph - N/A   Clear
11:35 PM 59.0 °F 50.0 °F 72% 30.12 in 10.0 mi Calm Calm - N/A   Clear
11:55 PM 59.0 °F 50.0 °F 72% 30.13 in 10.0 mi Calm Calm - N/A   Clear